Starlink 1301

operational
NORAD ID: 45361 Int'l Des: 2020-019 Owner: SPXS Country: US Constellation: starlink
LEOCIRCULARSTARLINK_TYPE

Starlink 1301について

説明を読み込み中...

リアルタイム位置

3D地球を読み込み中...

次回通過

高度履歴

Altitude vs Time

uPlot chart will show altitude changes over time

軌道要素

1 45361U 20019B 25350.33337963 .00164121 00000-0 33852-2 0 9991
2 45361 53.0478 146.9282 0006617 173.0787 107.0745 15.44786865 5893
Epoch: Dec 16, 2025 • Age: 20 hours

現在のステータス

高度 430.9 km
速度 7.66 km/s
衛星直下点 -14.52°S, 169.33°W
打ち上げ日 Mar 18, 2020
運用期間 5.7 years
タイプ internet

技術仕様

分類 Payload
質量 260.00 kg
乾燥質量 248.00 kg
総質量 260.00 kg
長さ 0.20 m
直径 2.80 m
スパン 9.00 m
形状 Box + pan
製造者 SPXS
バスタイプ Starlink
フェーズステータス In Orbit
所有者/国 SPXS/US

大規模コンステレーション

Loading constellations...